Regional Weather Roundup
Issued by NWS

Home | Current Version | Previous Version | Text Only | Print | Product List | Glossary On
Versions: 1 2 3 4 5 6 7 8 9 10 11 12 13 14 15 16 17 18 19 20 21 22 23 24 25 26 27 28 29 30 31 32 33 34 35 36 37 38 39 40 41 42 43 44 45 46 47 48 49 50
000
ASUS46 KPQR 110510
RWROR

OREGON REGIONAL WEATHER ROUNDUP
NATIONAL WEATHER SERVICE PORTLAND OR
900 PM PST SAT DEC 10 2016

NOTE: "FAIR" INDICATES FEW OR NO CLOUDS BELOW 12,000 FEET WITH
NO SIGNIFICANT WEATHER AND/OR OBSTRUCTIONS TO VISIBILITY.

ORZ001>013-110600-
NORTHWEST OREGON


CITY           SKY/WX    TMP DP  RH WIND       PRES   REMARKS
ASTORIA        PTCLDY    49  37  63 W14       29.92S
NEWPORT        PTCLDY    50  41  71 SW12      30.04S
PORTLAND       MOCLDY    43  42  97 S9        30.00R
VANCOUVER WA   PTCLDY    43  39  86 S5        29.99R
SCAPPOOSE      CLOUDY    34  33  96 CALM      29.98S FOG
HILLSBORO      MOCLDY    42  39  89 S10       29.98R
AURORA         CLOUDY    43  40  89 S10       30.02R
MCMINNVILLE    LGT RAIN  43  39  86 SW5       30.01R
SALEM          LGT RAIN  43  40  89 S12       30.01S
CORVALLIS        N/A     45  39  81 S14       30.04R
EUGENE         CLOUDY    42  38  85 SW3       30.07R
$$

ORZ021-028-110600-
SOUTHWEST OREGON


CITY           SKY/WX    TMP DP  RH WIND       PRES   REMARKS
NORTH BEND     MOCLDY    46  45  93 SE5       30.10R
BROOKINGS      CLOUDY    45  43  93 VRB3      30.15S
ROSEBURG       CLOUDY    44  40  85 CALM      30.11R
MEDFORD        PTCLDY    38  36  92 SE5       30.11R WCI  34
$$

ORZ014>016-041-110600-
COLUMBIA GORGE


CITY           SKY/WX    TMP DP  RH WIND       PRES   REMARKS
TROUTDALE      PTCLDY    43  39  86 S8        30.00R
HOOD RIVER     MIX PCPN  30  28  93 CALM      29.98S
THE DALLES     MOCLDY    25  21  85 NE5       30.02R WCI  19
$$

ORZ029>031-041-044-049-050-061>064-502-503-505>511-110600-
EASTERN OREGON


CITY           SKY/WX    TMP DP  RH WIND       PRES   REMARKS
REDMOND        PTCLDY    31  24  75 S8        29.95R WCI  23
BEND           MIX PCPN  34  28  80 SW14G20   29.95R WCI  24
PRINEVILLE     PTCLDY    32  25  74 CALM      29.96R
KLAMATH FALLS  CLEAR     31  27  85 W7        30.05R WCI  24
LAKEVIEW       MOCLDY    32  21  64 W10       30.02R WCI  24
HERMISTON      PTCLDY    20  17  88 SW3       29.98R
PENDLETON      CLOUDY    27  23  85 S12       29.93R WCI  17
JOHN DAY       MOCLDY    32  27  81 SW5       29.95R WCI  28
MEACHAM        CLOUDY    25  21  85 CALM      29.90R
LA GRANDE      CLOUDY    32  23  69 CALM      29.93R
BAKER CITY     FOG       13   9  84 CALM      29.95R VSB 3/4
BURNS          PTCLDY    25  21  85 SW6       29.97R WCI  18
ROME             N/A     34  29  82 SW6       29.94R WCI  29
ONTARIO        FOG       30  29  96 SW5       30.01R VSB 1/4 WCI  25
$$



USA.gov is the U.S. government's official web portal to all federal, state and local government web resources and services.